| time (UTC) | temp F | wind direction | speed knots | gust knots | rain 1hr in | rain 24hr in | rain mn in | humidity % | barometer mb |
| 20260902234605 | 91 | 322 | 1.7 | 5.2 | 0.00 | 0.00 | 0.00 | 50 | 1007.9 |
| 20260902233521 | 92 | 292 | 5.2 | 12.2 | 0.00 | 0.00 | 0.00 | 49 | 1008.1 |
| 20260902232516 | 92 | 299 | 5.2 | 12.2 | 0.00 | 0.00 | 0.00 | 49 | 1008.0 |
| 20260902231553 | 92 | 293 | 6.1 | 14.8 | 0.00 | 0.00 | 0.00 | 50 | 1008.0 |
| 20260902230531 | 92 | 289 | 4.3 | 8.7 | 0.00 | 0.00 | 0.00 | 49 | 1007.8 |
| 20260902225525 | 92 | 287 | 6.1 | 11.3 | 0.00 | 0.00 | 0.00 | 49 | 1007.6 |
| 20260902224541 | 92 | 285 | 6.1 | 13.9 | 0.00 | 0.00 | 0.00 | 48 | 1007.3 |
| 20260902223519 | 92 | 278 | 7.0 | 14.8 | 0.00 | 0.00 | 0.00 | 48 | 1007.3 |
| 20260902222539 | 93 | 286 | 6.1 | 11.3 | 0.00 | 0.00 | 0.00 | 48 | 1007.4 |
| 20260902221530 | 93 | 264 | 7.0 | 13.9 | 0.00 | 0.00 | 0.00 | 47 | 1007.4 |
| 20260902220526 | 93 | 291 | 5.2 | 12.2 | 0.00 | 0.00 | 0.00 | 48 | 1007.2 |
| 20260902215522 | 94 | 295 | 5.2 | 13.0 | 0.00 | 0.00 | 0.00 | 47 | 1007.3 |
| 20260902214518 | 94 | 279 | 7.0 | 15.6 | 0.00 | 0.00 | 0.00 | 47 | 1007.5 |
| 20260902213535 | 94 | 293 | 7.0 | 11.3 | 0.00 | 0.00 | 0.00 | 47 | 1007.4 |
| 20260902212551 | 93 | 281 | 7.0 | 12.2 | 0.00 | 0.00 | 0.00 | 47 | 1007.4 |
| 20260902211527 | 94 | 275 | 6.1 | 12.2 | 0.00 | 0.00 | 0.00 | 47 | 1007.4 |
| 20260902210525 | 94 | 290 | 5.2 | 11.3 | 0.00 | 0.00 | 0.00 | 47 | 1007.3 |
| 20260902205519 | 94 | 295 | 5.2 | 12.2 | 0.00 | 0.00 | 0.00 | 46 | 1007.5 |
| 20260902204515 | 94 | 307 | 4.3 | 11.3 | 0.00 | 0.00 | 0.00 | 46 | 1007.4 |
| 20260902203532 | 95 | 276 | 7.8 | 13.0 | 0.00 | 0.00 | 0.00 | 43 | 1007.5 |
| 20260902202527 | 97 | 269 | 7.8 | 16.5 | 0.00 | 0.00 | 0.00 | 43 | 1007.7 |
| 20260902201523 | 96 | 291 | 6.1 | 13.0 | 0.00 | 0.00 | 0.00 | 43 | 1007.8 |
| 20260902200519 | 96 | 276 | 7.8 | 14.8 | 0.00 | 0.00 | 0.00 | 43 | 1007.9 |
| 20260902195516 | 94 | 284 | 7.0 | 12.2 | 0.00 | 0.00 | 0.00 | 47 | 1008.0 |
| 20260902194532 | 94 | 303 | 5.2 | 11.3 | 0.00 | 0.00 | 0.00 | 47 | 1008.1 |
| 20260902193528 | 95 | 298 | 4.3 | 9.6 | 0.00 | 0.00 | 0.00 | 47 | 1008.4 |
| 20260902192524 | 95 | 292 | 5.2 | 13.0 | 0.00 | 0.00 | 0.00 | 45 | 1008.5 |
| 20260902191520 | 95 | 272 | 7.0 | 14.8 | 0.00 | 0.00 | 0.00 | 48 | 1008.6 |
| 20260902190516 | 95 | 274 | 6.1 | 13.0 | 0.00 | 0.00 | 0.00 | 49 | 1008.6 |
| 20260902185533 | 95 | 265 | 6.1 | 13.0 | 0.00 | 0.00 | 0.00 | 49 | 1008.8 |
| 20260902184549 | 95 | 332 | 4.3 | 12.2 | 0.00 | 0.00 | 0.00 | 51 | 1008.5 |
| 20260902183525 | 94 | 327 | 5.2 | 13.0 | 0.00 | 0.00 | 0.00 | 52 | 1008.7 |
| 20260902182523 | 94 | 337 | 5.2 | 8.7 | 0.00 | 0.00 | 0.00 | 51 | 1008.8 |
| 20260902181517 | 94 | 336 | 4.3 | 8.7 | 0.00 | 0.00 | 0.00 | 52 | 1009.0 |
| 20260902180533 | 93 | 359 | 4.3 | 7.8 | 0.00 | 0.00 | 0.00 | 54 | 1009.3 |
| 20260902175529 | 92 | 3 | 5.2 | 9.6 | 0.00 | 0.00 | 0.00 | 56 | 1009.4 |
| 20260902174525 | 91 | 2 | 2.6 | 7.0 | 0.00 | 0.00 | 0.00 | 55 | 1009.4 |
| 20260902173522 | 93 | 1 | 3.5 | 7.0 | 0.00 | 0.00 | 0.00 | 53 | 1009.5 |
| 20260902172518 | 94 | 357 | 4.3 | 8.7 | 0.00 | 0.00 | 0.00 | 52 | 1009.6 |
| 20260902171554 | 93 | 352 | 5.2 | 12.2 | 0.00 | 0.00 | 0.00 | 52 | 1009.7 |
| 20260902170532 | 92 | 194 | 6.1 | 14.8 | 0.00 | 0.00 | 0.00 | 55 | 1009.9 |
| 20260902165526 | 92 | 107 | 2.6 | 8.7 | 0.00 | 0.00 | 0.00 | 62 | 1009.9 |
| 20260902164523 | 92 | 104 | 3.5 | 6.1 | 0.00 | 0.00 | 0.00 | 63 | 1010.1 |
| 20260902163522 | 91 | 143 | 4.3 | 12.2 | 0.00 | 0.00 | 0.00 | 63 | 1009.9 |
| 20260902162535 | 90 | 98 | 1.7 | 5.2 | 0.00 | 0.00 | 0.00 | 68 | 1010.3 |
| 20260902161531 | 90 | 103 | 2.6 | 6.1 | 0.00 | 0.00 | 0.00 | 68 | 1010.3 |
| 20260902160527 | 89 | 107 | 2.6 | 7.8 | 0.00 | 0.00 | 0.00 | 68 | 1010.4 |
| 20260902155524 | 88 | 98 | 2.6 | 7.8 | 0.00 | 0.00 | 0.00 | 70 | 1010.5 |
| 20260902154520 | 88 | 104 | 3.5 | 7.0 | 0.00 | 0.00 | 0.00 | 70 | 1010.4 |
| 20260902153516 | 88 | 101 | 2.6 | 5.2 | 0.00 | 0.00 | 0.00 | 71 | 1010.5 |
| 20260902152532 | 88 | 103 | 3.5 | 6.1 | 0.00 | 0.00 | 0.00 | 71 | 1010.5 |
| 20260902151548 | 87 | 99 | 1.7 | 3.5 | 0.00 | 0.00 | 0.00 | 72 | 1010.4 |
| 20260902150525 | 87 | 150 | 3.5 | 8.7 | 0.00 | 0.00 | 0.00 | 72 | 1010.4 |
| 20260902145521 | 86 | 146 | 3.5 | 7.0 | 0.00 | 0.00 | 0.00 | 74 | 1010.4 |
| 20260902144517 | 85 | 166 | 3.5 | 8.7 | 0.00 | 0.00 | 0.00 | 75 | 1010.4 |
| 20260902143533 | 85 | 100 | 0.9 | 3.5 | 0.00 | 0.00 | 0.00 | 76 | 1010.3 |
| 20260902142529 | 84 | 167 | 2.6 | 7.0 | 0.00 | 0.00 | 0.00 | 77 | 1010.5 |
| 20260902141526 | 84 | 100 | 0.9 | 1.7 | 0.00 | 0.00 | 0.00 | 77 | 1010.4 |
| 20260902140523 | 83 | 181 | 3.5 | 7.8 | 0.00 | 0.00 | 0.00 | 78 | 1010.4 |
| 20260902135519 | 83 | 150 | 3.5 | 7.8 | 0.00 | 0.00 | 0.00 | 79 | 1010.6 |
| 20260902134534 | 82 | 160 | 2.6 | 6.1 | 0.00 | 0.00 | 0.00 | 80 | 1010.4 |
| 20260902133530 | 81 | 143 | 2.6 | 7.0 | 0.00 | 0.00 | 0.00 | 81 | 1010.5 |
| 20260902132526 | 81 | 123 | 1.7 | 5.2 | 0.00 | 0.00 | 0.00 | 82 | 1010.5 |
| 20260902131543 | 80 | 154 | 3.5 | 7.0 | 0.00 | 0.00 | 0.00 | 82 | 1010.4 |
| 20260902130519 | 80 | 137 | 2.6 | 7.0 | 0.00 | 0.00 | 0.00 | 83 | 1010.4 |
| 20260902125555 | 79 | 145 | 3.5 | 7.0 | 0.00 | 0.00 | 0.00 | 83 | 1010.4 |
| 20260902124611 | 79 | 130 | 2.6 | 7.0 | 0.00 | 0.00 | 0.00 | 84 | 1010.3 |
| 20260902123527 | 78 | 134 | 3.5 | 7.0 | 0.00 | 0.00 | 0.00 | 84 | 1010.3 |
| 20260902122544 | 78 | 161 | 3.5 | 8.7 | 0.00 | 0.00 | 0.00 | 84 | 1010.3 |
| 20260902121520 | 78 | 143 | 3.5 | 6.1 | 0.00 | 0.00 | 0.00 | 84 | 1010.3 |
| 20260902120516 | 78 | 130 | 2.6 | 7.0 | 0.00 | 0.00 | 0.00 | 84 | 1010.2 |
| 20260902115553 | 78 | 107 | 2.6 | 5.2 | 0.00 | 0.00 | 0.00 | 84 | 1010.1 |
| 20260902114530 | 78 | 110 | 2.6 | 5.2 | 0.00 | 0.00 | 0.00 | 84 | 1010.1 |
| 20260902113525 | 78 | 113 | 2.6 | 6.1 | 0.00 | 0.00 | 0.00 | 84 | 1010.1 |
| 20260902112521 | 78 | 170 | 3.5 | 6.1 | 0.00 | 0.00 | 0.00 | 84 | 1010.3 |
| 20260902111517 | 78 | 140 | 2.6 | 7.0 | 0.00 | 0.00 | 0.00 | 84 | 1010.3 |
| 20260902110634 | 78 | 137 | 2.6 | 3.5 | 0.00 | 0.00 | 0.00 | 84 | 1010.4 |
| 20260902105529 | 78 | 154 | 3.5 | 7.0 | 0.00 | 0.00 | 0.00 | 85 | 1010.4 |
| 20260902104547 | 77 | 120 | 2.6 | 6.1 | 0.00 | 0.00 | 0.00 | 85 | 1010.2 |
| 20260902103521 | 77 | 119 | 2.6 | 7.0 | 0.00 | 0.00 | 0.00 | 85 | 1010.0 |
| 20260902102518 | 77 | 120 | 0.9 | 5.2 | 0.00 | 0.00 | 0.00 | 85 | 1010.0 |
| 20260902101534 | 77 | 107 | 0.9 | 1.7 | 0.00 | 0.00 | 0.00 | 85 | 1010.0 |
| 20260902100551 | 77 | 107 | 0.9 | 1.7 | 0.00 | 0.00 | 0.00 | 85 | 1010.0 |
| 20260902095528 | 77 | 109 | 0.9 | 2.6 | 0.00 | 0.00 | 0.00 | 85 | 1009.9 |
| 20260902094522 | 77 | 107 | 0.0 | 2.6 | 0.00 | 0.00 | 0.00 | 85 | 1010.0 |
| 20260902093519 | 77 | 105 | 0.9 | 2.6 | 0.00 | 0.00 | 0.00 | 85 | 1010.0 |
| 20260902092535 | 77 | 110 | 0.9 | 2.6 | 0.00 | 0.00 | 0.00 | 85 | 1010.1 |
| 20260902091531 | 77 | 110 | 0.9 | 2.6 | 0.00 | 0.00 | 0.00 | 85 | 1010.0 |
| 20260902090527 | 77 | 110 | 0.9 | 2.6 | 0.00 | 0.00 | 0.00 | 85 | 1009.8 |
| 20260902085523 | 76 | 109 | 1.7 | 2.6 | 0.00 | 0.00 | 0.00 | 85 | 1009.8 |
| 20260902084520 | 76 | 110 | 1.7 | 2.6 | 0.00 | 0.00 | 0.00 | 84 | 1009.8 |
| 20260902083516 | 76 | 111 | 1.7 | 6.1 | 0.00 | 0.00 | 0.00 | 84 | 1009.9 |
| 20260902082532 | 76 | 112 | 1.7 | 2.6 | 0.00 | 0.00 | 0.00 | 84 | 1010.0 |
| 20260902081530 | 76 | 112 | 0.9 | 2.6 | 0.00 | 0.00 | 0.00 | 84 | 1009.9 |
| 20260902080544 | 76 | 111 | 1.7 | 3.5 | 0.00 | 0.00 | 0.00 | 84 | 1009.6 |
| 20260902075520 | 76 | 111 | 0.9 | 3.5 | 0.00 | 0.00 | 0.00 | 84 | 1009.6 |
| 20260902074537 | 76 | 111 | 1.7 | 3.5 | 0.00 | 0.00 | 0.00 | 84 | 1009.8 |
| 20260902073533 | 76 | 111 | 1.7 | 3.5 | 0.00 | 0.00 | 0.00 | 84 | 1009.8 |
| 20260902072549 | 76 | 111 | 1.7 | 3.5 | 0.00 | 0.00 | 0.00 | 84 | 1009.7 |
| 20260902071525 | 76 | 111 | 0.9 | 2.6 | 0.00 | 0.00 | 0.00 | 83 | 1009.9 |
| 20260902070521 | 76 | 111 | 0.9 | 2.6 | 0.00 | 0.00 | 0.00 | 83 | 1009.9 |
| 20260902065517 | 76 | 111 | 0.0 | 0.9 | 0.00 | 0.00 | 0.00 | 83 | 1009.9 |
| 20260902064533 | 76 | 111 | 0.9 | 2.6 | 0.00 | 0.00 | 0.00 | 83 | 1010.0 |
| 20260902063530 | 76 | 111 | 0.9 | 1.7 | 0.00 | 0.00 | 0.00 | 83 | 1010.0 |
| 20260902062525 | 76 | 111 | 0.9 | 1.7 | 0.00 | 0.00 | 0.00 | 83 | 1010.3 |
| 20260902061522 | 76 | 111 | 0.9 | 1.7 | 0.00 | 0.00 | 0.00 | 82 | 1010.2 |
| 20260902060518 | 77 | 111 | 0.9 | 0.9 | 0.00 | 0.00 | 0.00 | 82 | 1010.4 |
| 20260902055534 | 77 | 111 | 0.9 | 1.7 | 0.00 | 0.00 | 0.00 | 82 | 1010.7 |
| 20260902054530 | 77 | 111 | 0.9 | 1.7 | 0.00 | 0.00 | 0.00 | 82 | 1010.6 |
| 20260902053547 | 77 | 111 | 0.9 | 1.7 | 0.00 | 0.00 | 0.00 | 82 | 1010.7 |
| 20260902052523 | 77 | 111 | 0.9 | 1.7 | 0.00 | 0.00 | 0.00 | 81 | 1010.7 |
| 20260902051519 | 77 | 111 | 0.0 | 0.9 | 0.00 | 0.00 | 0.00 | 81 | 1010.7 |
| 20260902050555 | 77 | 111 | 0.9 | 1.7 | 0.00 | 0.00 | 0.00 | 81 | 1010.6 |
| 20260902045551 | 77 | 111 | 0.9 | 2.6 | 0.00 | 0.00 | 0.00 | 80 | 1010.7 |
| 20260902044527 | 77 | 0.0 | 0.0 | 0.00 | 0.00 | 0.00 | 80 | 1010.7 | |
| 20260902043524 | 77 | 111 | 0.9 | 0.9 | 0.00 | 0.00 | 0.00 | 80 | 1010.6 |
| 20260902042520 | 78 | 111 | 0.9 | 0.9 | 0.00 | 0.00 | 0.00 | 79 | 1010.5 |
| 20260902041535 | 78 | 0.0 | 0.0 | 0.00 | 0.00 | 0.00 | 79 | 1010.5 | |
| 20260902040531 | 78 | 0.0 | 0.0 | 0.00 | 0.00 | 0.00 | 79 | 1010.5 | |
| 20260902035526 | 78 | 112 | 0.0 | 0.9 | 0.00 | 0.00 | 0.00 | 78 | 1010.5 |
| 20260902034524 | 78 | 112 | 0.0 | 2.6 | 0.00 | 0.00 | 0.00 | 78 | 1010.4 |
| 20260902033520 | 79 | 112 | 0.0 | 0.9 | 0.00 | 0.00 | 0.00 | 78 | 1010.3 |
| 20260902032535 | 79 | 112 | 0.0 | 0.9 | 0.00 | 0.00 | 0.00 | 77 | 1010.3 |
| 20260902031531 | 79 | 112 | 0.0 | 0.9 | 0.00 | 0.00 | 0.00 | 77 | 1010.3 |
| 20260902030527 | 80 | 112 | 0.0 | 0.9 | 0.00 | 0.00 | 0.00 | 76 | 1010.2 |
| 20260902025523 | 80 | 0.0 | 0.0 | 0.00 | 0.00 | 0.00 | 75 | 1010.2 | |
| 20260902024521 | 81 | 137 | 0.0 | 0.9 | 0.00 | 0.00 | 0.00 | 75 | 1010.1 |
| 20260902023515 | 81 | 137 | 0.0 | 0.9 | 0.00 | 0.00 | 0.00 | 74 | 1010.1 |
| 20260902022553 | 82 | 162 | 0.0 | 0.9 | 0.00 | 0.00 | 0.00 | 73 | 1010.2 |
| 20260902021548 | 83 | 166 | 0.9 | 3.5 | 0.00 | 0.00 | 0.00 | 73 | 1010.1 |
| 20260902020544 | 83 | 178 | 1.7 | 6.1 | 0.00 | 0.00 | 0.00 | 73 | 1010.2 |
| 20260902015540 | 83 | 169 | 1.7 | 3.5 | 0.00 | 0.00 | 0.00 | 73 | 1010.1 |
| 20260902014518 | 83 | 181 | 1.7 | 2.6 | 0.00 | 0.00 | 0.00 | 73 | 1010.2 |
| 20260902013532 | 83 | 183 | 2.6 | 6.1 | 0.00 | 0.00 | 0.00 | 72 | 1010.2 |
| 20260902012528 | 84 | 184 | 2.6 | 5.2 | 0.00 | 0.00 | 0.00 | 72 | 1010.0 |
| 20260902011545 | 84 | 184 | 2.6 | 6.1 | 0.00 | 0.00 | 0.00 | 73 | 1009.8 |
| 20260902010521 | 84 | 188 | 2.6 | 7.8 | 0.00 | 0.00 | 0.00 | 73 | 1009.8 |
| 20260902005600 | 84 | 189 | 3.5 | 7.0 | 0.00 | 0.00 | 0.00 | 74 | 1009.6 |
| 20260902004533 | 84 | 185 | 2.6 | 7.0 | 0.00 | 0.00 | 0.00 | 74 | 1009.4 |
| 20260902003530 | 84 | 188 | 3.5 | 8.7 | 0.00 | 0.00 | 0.00 | 75 | 1009.3 |
| 20260902002526 | 84 | 184 | 2.6 | 6.1 | 0.00 | 0.00 | 0.00 | 75 | 1009.1 |
| 20260902001522 | 83 | 187 | 3.5 | 8.7 | 0.00 | 0.00 | 0.00 | 76 | 1009.4 |
| 20260902000518 | 83 | 181 | 1.7 | 5.2 | 0.00 | 0.00 | 0.00 | 76 | 1009.3 |
| 20260901235534 | 83 | 150 | 0.9 | 3.5 | 0.00 | 0.00 | 0.00 | 75 | 1009.3 |